STARLINK-35697 (66539 NORAD) Tracking and Keplerian Element Data

This shows tracking and keplerian element data for the satellite.

Feedback or suggestion? Click here.




ElementValue
Catalog66539
NameSTARLINK-35697
Epoch Orbit465
Epoch Day352.50477597
Epoch Year2025
RAAN20.1983
Inclination43.0002
Eccentricity0.000128
Argument of Perigee281.5307
Mean Anonmoly78.5409
Mean Motion15.50318925
Decay Rate-0.00131246
L11 66539U 25265Z 25352.50477597 -.00131246 00000+0 -22902-2 0 9995
L22 66539 43.0002 20.1983 0001280 281.5307 78.5409 15.50318925 4657



Live tracking and technical data element details for STARLINK-35697 (NORAD 66539). STARLINK-35697 can be tracked NOW for your location showing map with azimuth and elevation plus other details from your city location.







IsCatalogInMostPopularTable: catalog: 66539, numindb: 12
Update: records affected: 1



GetName: 66539 STARLINK-35697

Hit Count: updated at: Mon, 20 Apr 2026 09:19:12 GMT